Time,TemperatureF,DewpointF,PressureIn,WindDirection,WindDirectionDegrees,WindSpeedMPH,WindSpeedGustMPH,Humidity,HourlyPrecipIn,Conditions,Clouds,dailyrainin,SoftwareType,DateUTC
2013-06-02 00:02:00,61.7,60.0,29.71,East,83,1.0,4.0,93,0.12,,,0.00,weatherlink.com 1.10,2013-06-02 04:02:00,
2013-06-02 00:18:00,61.1,59.0,29.69,ENE,70,0.0,2.0,93,0.08,,,0.03,weatherlink.com 1.10,2013-06-02 04:18:00,
2013-06-02 00:33:00,60.7,59.0,29.69,ENE,67,0.0,2.0,94,0.06,,,0.05,weatherlink.com 1.10,2013-06-02 04:33:00,
2013-06-02 00:48:00,60.5,59.0,29.69,SE,129,0.0,0.0,95,0.05,,,0.05,weatherlink.com 1.10,2013-06-02 04:48:00,
2013-06-02 01:03:00,60.5,59.0,29.70,SW,220,0.0,0.0,96,0.05,,,0.05,weatherlink.com 1.10,2013-06-02 05:03:00,
2013-06-02 01:18:00,60.3,59.0,29.70,SE,146,0.0,1.0,96,0.02,,,0.05,weatherlink.com 1.10,2013-06-02 05:18:00,
2013-06-02 01:33:00,60.0,59.0,29.70,SE,146,0.0,0.0,96,0.00,,,0.05,weatherlink.com 1.10,2013-06-02 05:33:00,
2013-06-02 01:48:00,59.9,59.0,29.70,ESE,110,0.0,2.0,96,0.00,,,0.05,weatherlink.com 1.10,2013-06-02 05:48:00,
2013-06-02 02:03:00,60.0,59.0,29.69,SE,131,0.0,1.0,96,0.00,,,0.05,weatherlink.com 1.10,2013-06-02 06:03:00,
2013-06-02 02:18:00,60.5,59.0,29.69,SE,134,3.0,3.0,96,0.00,,,0.05,weatherlink.com 1.10,2013-06-02 06:18:00,
2013-06-02 02:33:00,61.0,60.0,29.69,East,97,0.0,6.0,96,0.00,,,0.05,weatherlink.com 1.10,2013-06-02 06:33:00,
2013-06-02 02:48:00,61.4,60.0,29.69,NW,316,0.0,11.0,96,0.00,,,0.05,weatherlink.com 1.10,2013-06-02 06:48:00,
2013-06-02 03:03:00,61.5,60.0,29.69,East,84,0.0,2.0,96,0.00,,,0.05,weatherlink.com 1.10,2013-06-02 07:03:00,
2013-06-02 03:18:00,61.5,60.0,29.70,SSW,213,1.0,4.0,96,0.00,,,0.05,weatherlink.com 1.10,2013-06-02 07:18:00,
2013-06-02 03:33:00,61.4,60.0,29.70,ESE,119,0.0,5.0,96,0.00,,,0.05,weatherlink.com 1.10,2013-06-02 07:33:00,
2013-06-02 03:48:00,61.4,60.0,29.69,South,174,0.0,3.0,96,0.01,,,0.06,weatherlink.com 1.10,2013-06-02 07:48:00,
2013-06-02 04:03:00,61.3,60.0,29.70,East,94,1.0,3.0,96,0.01,,,0.06,weatherlink.com 1.10,2013-06-02 08:03:00,
2013-06-02 04:18:00,61.3,60.0,29.70,WSW,255,0.0,3.0,96,0.01,,,0.06,weatherlink.com 1.10,2013-06-02 08:18:00,
2013-06-02 04:33:00,61.2,60.0,29.70,West,280,0.0,4.0,96,0.01,,,0.06,weatherlink.com 1.10,2013-06-02 08:33:00,
2013-06-02 04:48:00,61.1,60.0,29.71,SW,235,2.0,4.0,96,0.00,,,0.06,weatherlink.com 1.10,2013-06-02 08:48:00,
2013-06-02 05:03:00,60.9,60.0,29.71,WNW,301,1.0,4.0,96,0.00,,,0.06,weatherlink.com 1.10,2013-06-02 09:03:00,
2013-06-02 05:18:00,60.7,60.0,29.71,East,86,1.0,5.0,96,0.00,,,0.06,weatherlink.com 1.10,2013-06-02 09:18:00,
2013-06-02 05:33:00,60.6,60.0,29.72,WSW,252,1.0,5.0,96,0.00,,,0.06,weatherlink.com 1.10,2013-06-02 09:33:00,
2013-06-02 05:48:00,60.4,59.0,29.72,East,94,2.0,4.0,96,0.00,,,0.06,weatherlink.com 1.10,2013-06-02 09:48:00,
2013-06-02 06:03:00,60.3,59.0,29.73,West,259,6.0,6.0,96,0.00,,,0.06,weatherlink.com 1.10,2013-06-02 10:03:00,
2013-06-02 06:18:00,60.0,59.0,29.74,WNW,302,0.0,3.0,96,0.00,,,0.06,weatherlink.com 1.10,2013-06-02 10:18:00,
2013-06-02 06:33:00,59.9,59.0,29.75,NW,316,0.0,3.0,96,0.00,,,0.06,weatherlink.com 1.10,2013-06-02 10:33:00,
2013-06-02 06:48:00,59.9,59.0,29.76,South,184,0.0,3.0,96,0.00,,,0.06,weatherlink.com 1.10,2013-06-02 10:48:00,
2013-06-02 07:03:00,59.9,59.0,29.76,NNW,344,0.0,2.0,96,0.00,,,0.06,weatherlink.com 1.10,2013-06-02 11:03:00,
2013-06-02 07:18:00,59.9,59.0,29.77,South,169,0.0,3.0,96,0.00,,,0.06,weatherlink.com 1.10,2013-06-02 11:18:00,
2013-06-02 07:33:00,59.9,59.0,29.78,SSW,201,2.0,4.0,95,0.00,,,0.06,weatherlink.com 1.10,2013-06-02 11:33:00,
2013-06-02 07:48:00,59.3,58.0,29.79,ENE,78,0.0,5.0,94,0.00,,,0.06,weatherlink.com 1.10,2013-06-02 11:48:00,
2013-06-02 08:03:00,58.6,57.0,29.80,NW,311,1.0,4.0,94,0.00,,,0.06,weatherlink.com 1.10,2013-06-02 12:03:00,
2013-06-02 08:18:00,56.9,55.0,29.80,NNW,340,2.0,4.0,93,0.00,,,0.06,weatherlink.com 1.10,2013-06-02 12:18:00,
2013-06-02 08:34:00,55.9,54.0,29.81,NW,326,1.0,4.0,93,0.00,,,0.06,weatherlink.com 1.10,2013-06-02 12:34:00,
2013-06-02 08:49:00,55.3,54.0,29.82,NW,319,1.0,3.0,94,0.00,,,0.06,weatherlink.com 1.10,2013-06-02 12:49:00,
2013-06-02 09:04:00,54.2,53.0,29.83,NNW,335,0.0,4.0,94,0.00,,,0.06,weatherlink.com 1.10,2013-06-02 13:04:00,
2013-06-02 09:19:00,52.8,51.0,29.84,NW,319,3.0,3.0,93,0.00,,,0.06,weatherlink.com 1.10,2013-06-02 13:19:00,
2013-06-02 09:34:00,52.4,51.0,29.84,North,360,1.0,4.0,94,0.00,,,0.06,weatherlink.com 1.10,2013-06-02 13:34:00,
2013-06-02 09:49:00,52.8,51.0,29.84,North,359,0.0,3.0,92,0.00,,,0.06,weatherlink.com 1.10,2013-06-02 13:49:00,
2013-06-02 10:04:00,53.3,51.0,29.85,NNW,348,1.0,5.0,90,0.00,,,0.06,weatherlink.com 1.10,2013-06-02 14:04:00,
2013-06-02 10:19:00,54.4,52.0,29.85,East,92,2.0,5.0,90,0.00,,,0.06,weatherlink.com 1.10,2013-06-02 14:19:00,
2013-06-02 10:34:00,54.8,51.0,29.85,NNE,20,3.0,4.0,86,0.00,,,0.06,weatherlink.com 1.10,2013-06-02 14:34:00,
2013-06-02 10:49:00,55.0,51.0,29.86,NW,305,1.0,5.0,85,0.00,,,0.06,weatherlink.com 1.10,2013-06-02 14:49:00,
2013-06-02 11:04:00,55.4,50.0,29.87,NNW,335,1.0,5.0,83,0.00,,,0.06,weatherlink.com 1.10,2013-06-02 15:04:00,
2013-06-02 11:20:00,56.1,51.0,29.87,SW,232,1.0,6.0,82,0.00,,,0.06,weatherlink.com 1.10,2013-06-02 15:20:00,
2013-06-02 11:34:00,57.4,52.0,29.88,NNW,330,1.0,6.0,82,0.00,,,0.06,weatherlink.com 1.10,2013-06-02 15:34:00,
2013-06-02 11:49:00,58.2,52.0,29.88,NW,312,1.0,6.0,79,0.00,,,0.06,weatherlink.com 1.10,2013-06-02 15:49:00,
2013-06-02 12:04:00,58.3,51.0,29.89,NNE,31,3.0,6.0,78,0.00,,,0.06,weatherlink.com 1.10,2013-06-02 16:04:00,
2013-06-02 12:19:00,58.3,51.0,29.90,WNW,300,2.0,5.0,76,0.00,,,0.06,weatherlink.com 1.10,2013-06-02 16:19:00,
2013-06-02 12:34:00,58.4,52.0,29.91,SSE,162,1.0,6.0,79,0.00,,,0.06,weatherlink.com 1.10,2013-06-02 16:34:00,
2013-06-02 12:50:00,58.0,52.0,29.92,NNW,332,2.0,5.0,80,0.00,,,0.06,weatherlink.com 1.10,2013-06-02 16:50:00,
2013-06-02 13:05:00,57.7,51.0,29.91,SSE,148,2.0,6.0,77,0.00,,,0.06,weatherlink.com 1.10,2013-06-02 17:05:00,
2013-06-02 13:20:00,57.6,50.0,29.92,NW,323,0.0,7.0,75,0.00,,,0.06,weatherlink.com 1.10,2013-06-02 17:20:00,
2013-06-02 13:34:00,58.6,50.0,29.92,NW,308,3.0,9.0,72,0.00,,,0.06,weatherlink.com 1.10,2013-06-02 17:34:00,
2013-06-02 13:49:00,58.6,50.0,29.93,NNW,340,2.0,5.0,72,0.00,,,0.06,weatherlink.com 1.10,2013-06-02 17:49:00,
2013-06-02 14:05:00,57.8,50.0,29.93,NW,323,1.0,6.0,74,0.00,,,0.06,weatherlink.com 1.10,2013-06-02 18:05:00,
2013-06-02 14:19:00,58.5,50.0,29.94,NNE,18,2.0,5.0,74,0.00,,,0.06,weatherlink.com 1.10,2013-06-02 18:19:00,
2013-06-02 14:34:00,59.0,50.0,29.94,NW,315,1.0,9.0,72,0.00,,,0.06,weatherlink.com 1.10,2013-06-02 18:34:00,
2013-06-02 14:50:00,58.6,50.0,29.94,NNW,327,1.0,6.0,73,0.00,,,0.06,weatherlink.com 1.10,2013-06-02 18:50:00,
2013-06-02 15:05:00,58.2,50.0,29.94,SSE,150,2.0,5.0,74,0.00,,,0.06,weatherlink.com 1.10,2013-06-02 19:05:00,
2013-06-02 15:19:00,57.7,49.0,29.95,West,270,3.0,5.0,73,0.00,,,0.06,weatherlink.com 1.10,2013-06-02 19:19:00,
2013-06-02 15:35:00,56.9,48.0,29.96,NW,324,2.0,5.0,72,0.00,,,0.06,weatherlink.com 1.10,2013-06-02 19:35:00,
2013-06-02 15:50:00,56.6,49.0,29.97,NNW,328,1.0,4.0,75,0.00,,,0.06,weatherlink.com 1.10,2013-06-02 19:50:00,
2013-06-02 16:04:00,56.7,48.0,29.97,NW,321,1.0,4.0,72,0.00,,,0.06,weatherlink.com 1.10,2013-06-02 20:04:00,
2013-06-02 16:20:00,56.8,48.0,29.97,NNW,330,1.0,5.0,72,0.00,,,0.06,weatherlink.com 1.10,2013-06-02 20:20:00,
2013-06-02 16:35:00,57.0,47.0,29.97,NW,304,1.0,5.0,69,0.00,,,0.06,weatherlink.com 1.10,2013-06-02 20:35:00,
2013-06-02 16:49:00,57.7,49.0,29.97,NNW,342,1.0,4.0,72,0.00,,,0.06,weatherlink.com 1.10,2013-06-02 20:49:00,
2013-06-02 17:05:00,58.6,48.0,29.97,NW,321,3.0,9.0,67,0.00,,,0.06,weatherlink.com 1.10,2013-06-02 21:05:00,
2013-06-02 17:20:00,58.3,46.0,29.97,NNW,329,0.0,5.0,65,0.00,,,0.06,weatherlink.com 1.10,2013-06-02 21:20:00,
2013-06-02 17:35:00,57.8,48.0,29.97,SSE,158,0.0,2.0,69,0.00,,,0.06,weatherlink.com 1.10,2013-06-02 21:35:00,
2013-06-02 17:49:00,57.4,47.0,29.97,NNE,12,0.0,3.0,68,0.00,,,0.06,weatherlink.com 1.10,2013-06-02 21:49:00,
2013-06-02 18:05:00,56.5,46.0,29.98,SSE,168,3.0,4.0,68,0.00,,,0.06,weatherlink.com 1.10,2013-06-02 22:05:00,
2013-06-02 18:20:00,55.5,45.0,29.97,North,6,1.0,4.0,68,0.00,,,0.06,weatherlink.com 1.10,2013-06-02 22:20:00,
2013-06-02 18:35:00,55.3,44.0,29.97,NW,325,1.0,3.0,67,0.00,,,0.06,weatherlink.com 1.10,2013-06-02 22:35:00,
2013-06-02 18:50:00,54.9,44.0,29.98,NNW,339,0.0,6.0,68,0.00,,,0.06,weatherlink.com 1.10,2013-06-02 22:50:00,
2013-06-02 19:05:00,54.4,44.0,29.98,NW,321,0.0,6.0,69,0.00,,,0.06,weatherlink.com 1.10,2013-06-02 23:05:00,
2013-06-02 19:20:00,53.7,44.0,29.98,West,270,1.0,4.0,71,0.00,,,0.06,weatherlink.com 1.10,2013-06-02 23:20:00,
2013-06-02 19:35:00,53.3,44.0,29.99,NW,325,3.0,3.0,71,0.00,,,0.06,weatherlink.com 1.10,2013-06-02 23:35:00,
2013-06-02 19:50:00,52.7,44.0,29.99,ESE,111,1.0,3.0,73,0.00,,,0.06,weatherlink.com 1.10,2013-06-02 23:50:00,
2013-06-02 20:05:00,52.3,44.0,30.00,ENE,67,0.0,3.0,73,0.00,,,0.06,weatherlink.com 1.10,2013-06-03 00:05:00,
2013-06-02 20:20:00,51.7,44.0,30.00,NNW,335,0.0,2.0,75,0.00,,,0.06,weatherlink.com 1.10,2013-06-03 00:20:00,
2013-06-02 20:35:00,51.1,44.0,30.01,North,10,0.0,1.0,78,0.00,,,0.06,weatherlink.com 1.10,2013-06-03 00:35:00,
2013-06-02 20:50:00,50.8,45.0,30.00,NNW,328,0.0,2.0,79,0.00,,,0.06,weatherlink.com 1.10,2013-06-03 00:50:00,
2013-06-02 21:05:00,50.5,45.0,30.00,NNW,345,0.0,1.0,81,0.00,,,0.06,weatherlink.com 1.10,2013-06-03 01:05:00,
2013-06-02 21:20:00,49.9,45.0,30.00,NNW,342,0.0,1.0,82,0.00,,,0.06,weatherlink.com 1.10,2013-06-03 01:20:00,
2013-06-02 21:35:00,49.6,45.0,30.00,NNE,18,0.0,1.0,83,0.00,,,0.06,weatherlink.com 1.10,2013-06-03 01:35:00,
2013-06-02 21:50:00,49.3,45.0,30.01,NNE,19,0.0,1.0,85,0.00,,,0.06,weatherlink.com 1.10,2013-06-03 01:50:00,
2013-06-02 22:05:00,49.5,45.0,30.01,North,8,0.0,1.0,85,0.00,,,0.06,weatherlink.com 1.10,2013-06-03 02:05:00,
2013-06-02 22:20:00,49.8,46.0,30.01,North,8,0.0,0.0,85,0.00,,,0.06,weatherlink.com 1.10,2013-06-03 02:20:00,
2013-06-02 22:36:00,50.2,46.0,30.02,North,8,0.0,1.0,85,0.00,,,0.06,weatherlink.com 1.10,2013-06-03 02:36:00,
2013-06-02 22:51:00,50.4,45.0,30.03,North,8,0.0,2.0,82,0.00,,,0.06,weatherlink.com 1.10,2013-06-03 02:51:00,
2013-06-02 23:06:00,49.7,44.0,30.03,North,349,0.0,1.0,81,0.00,,,0.06,weatherlink.com 1.10,2013-06-03 03:06:00,
2013-06-02 23:21:00,48.7,43.0,30.04,North,351,0.0,1.0,82,0.00,,,0.06,weatherlink.com 1.10,2013-06-03 03:21:00,
2013-06-02 23:36:00,47.5,43.0,30.04,North,351,0.0,1.0,85,0.00,,,0.06,weatherlink.com 1.10,2013-06-03 03:36:00,
2013-06-02 23:51:00,46.9,43.0,30.04,North,351,0.0,1.0,87,0.00,,,0.06,weatherlink.com 1.10,2013-06-03 03:51:00,